This is the latest recevied weather packets stored in our database for station/object N9BID. If no packets are shown the sender has not sent any weather packets the latest 10 day(s).
| Time | Temp. | Humidity | Pressure | Rain* | Wind** | Luminosity | Snow |
|---|---|---|---|---|---|---|---|
| 1777895540 | 10.56° C | 62% | 989.1 hPa | 0 mm | - | 51 W/m² | - |
| 1777895238 | 10.56° C | 63% | 988.9 hPa | 0 mm | - | 45 W/m² | - |
| 1777894936 | 10.56° C | 63% | 989 hPa | 0 mm | - | 41 W/m² | - |
| 1777894633 | 10.56° C | 63% | 989 hPa | 0 mm | - | 34 W/m² | - |
| 1777894329 | 10.56° C | 63% | 989.1 hPa | 0 mm | - | 29 W/m² | - |
| 1777894027 | 10.56° C | 63% | 989.3 hPa | 0 mm | - | 26 W/m² | - |
| 1777893723 | 10.56° C | 63% | 988.9 hPa | 0 mm | - | 25 W/m² | - |
| 1777893419 | 10.56° C | 63% | 989.2 hPa | 0 mm | - | 21 W/m² | - |
| 1777893116 | 10.56° C | 63% | 989.2 hPa | 0 mm | - | 19 W/m² | - |
| 1777892813 | 10.56° C | 61% | 989.2 hPa | 0 mm | - | 12 W/m² | - |
| 1777892509 | 10.56° C | 62% | 989.1 hPa | 0 mm | - | 7 W/m² | - |
| 1777892204 | 10.56° C | 62% | 989.2 hPa | 0 mm | - | 3 W/m² | - |
| 1777891902 | 10.56° C | 60% | 989.5 hPa | 0 mm | - | 1 W/m² | - |
| 1777891599 | 11.11° C | 60% | 989.7 hPa | 0 mm | - | 0 W/m² | - |
| 1777891296 | 11.11° C | 58% | 989.5 hPa | 0 mm | - | 0 W/m² | - |
| 1777890995 | 11.67° C | 57% | 989.4 hPa | 0 mm | - | 0 W/m² | - |
| 1777890690 | 10.56° C | 59% | 989.5 hPa | 0 mm | - | 0 W/m² | - |
| 1777890386 | 10.56° C | 60% | 989.7 hPa | 0 mm | - | 0 W/m² | - |
| 1777890082 | 10.56° C | 60% | 989.5 hPa | 0 mm | - | 0 W/m² | - |
| 1777889780 | 10.56° C | 61% | 990 hPa | 0 mm | - | 0 W/m² | - |
| 1777889477 | 10.56° C | 61% | 990.2 hPa | 0 mm | - | 0 W/m² | - |
| 1777889175 | 10.56° C | 61% | 990.1 hPa | 0 mm | - | 0 W/m² | - |
| 1777888873 | 10.56° C | 62% | 990.2 hPa | 0 mm | - | 0 W/m² | - |
| 1777888569 | 10° C | 61% | 990.3 hPa | 0 mm | - | 0 W/m² | - |
| 1777888265 | 10° C | 64% | 990.3 hPa | 0 mm | - | 0 W/m² | - |
* Rain latest hour (hover to see other rain measurements)
** Current wind speed in m/s (hover to see current wind gust speed)